TimeEDT,TemperatureF,Dew PointF,Humidity,Sea Level PressureIn,VisibilityMPH,Wind Direction,Wind SpeedMPH,Gust SpeedMPH,PrecipitationIn,Events,Conditions,WindDirDegrees,DateUTC
12:53 AM,81.0,73.0,77,30.02,10.0,NE,8.1,-,N/A,,Clear,40,2012-09-25 04:53:00
1:53 AM,81.0,75.0,82,30.01,10.0,NE,10.4,-,N/A,,Clear,40,2012-09-25 05:53:00
2:53 AM,80.1,72.0,76,29.99,10.0,NE,5.8,-,N/A,,Clear,50,2012-09-25 06:53:00
3:53 AM,80.1,75.9,87,29.99,10.0,NE,8.1,-,N/A,,Clear,40,2012-09-25 07:53:00
4:53 AM,80.1,75.9,87,29.98,10.0,NE,10.4,-,N/A,,Clear,50,2012-09-25 08:53:00
5:53 AM,80.1,75.9,87,29.99,10.0,NE,9.2,-,N/A,,Clear,40,2012-09-25 09:53:00
6:53 AM,80.1,75.9,87,30.00,10.0,NE,8.1,-,N/A,,Clear,40,2012-09-25 10:53:00
7:53 AM,80.1,75.9,87,30.01,9.0,NE,9.2,-,N/A,,Clear,40,2012-09-25 11:53:00
8:53 AM,81.0,75.9,85,30.03,10.0,NNE,10.4,-,N/A,,Clear,30,2012-09-25 12:53:00
9:53 AM,81.0,75.9,85,30.04,10.0,NE,11.5,-,N/A,,Clear,40,2012-09-25 13:53:00
10:53 AM,82.0,75.9,82,30.06,10.0,NNE,9.2,-,N/A,,Clear,30,2012-09-25 14:53:00
11:53 AM,82.0,78.1,88,30.06,9.0,NE,6.9,-,0.00,Rain,Light Rain,40,2012-09-25 15:53:00
12:53 PM,82.9,77.0,82,30.05,10.0,ENE,8.1,-,0.00,,Scattered Clouds,60,2012-09-25 16:53:00
1:53 PM,82.0,79.0,90,30.03,7.0,Calm,Calm,-,0.03,Rain,Light Rain,0,2012-09-25 17:53:00
3:53 PM,82.9,77.0,82,29.99,10.0,NE,6.9,-,0.00,,Partly Cloudy,40,2012-09-25 19:53:00
4:53 PM,82.9,77.0,82,29.99,10.0,ENE,4.6,-,N/A,,Clear,60,2012-09-25 20:53:00
5:53 PM,82.9,73.9,74,30.01,10.0,ENE,6.9,-,N/A,,Clear,70,2012-09-25 21:53:00
6:53 PM,82.9,73.9,74,30.01,10.0,ENE,8.1,-,N/A,,Clear,60,2012-09-25 22:53:00
7:53 PM,82.9,73.9,74,30.01,10.0,ENE,5.8,-,N/A,,Clear,70,2012-09-25 23:53:00
8:53 PM,82.0,75.0,79,30.04,10.0,ENE,4.6,-,N/A,,Clear,70,2012-09-26 00:53:00
9:53 PM,82.0,75.0,79,30.06,10.0,ENE,5.8,-,N/A,,Clear,60,2012-09-26 01:53:00
10:53 PM,82.0,75.0,79,30.06,10.0,NE,8.1,-,N/A,,Clear,50,2012-09-26 02:53:00
11:53 PM,82.0,77.0,85,30.05,10.0,ENE,8.1,-,N/A,,Clear,60,2012-09-26 03:53:00